EW0050 Weather Reports


Display with metric or nautical units.
time (UTC)temp
F
wind
direction
speed
MPH
gust
MPH
rain 1hr
in
rain 24hr
in
rain mn
in
humidity
%
barometer
mb
20260505205920 62 146 2.0 8.0 0.00 1.57 0.00 84 1010.3
20260505202928 62 134 0.0 4.0 0.00 1.57 0.00 83 1010.4
20260505195936 62 95 0.0 0.0 0.00 1.57 0.00 81 1010.0
20260505192914 63 40 0.0 3.0 0.00 1.57 0.00 80 1009.9
20260505185927 62 211 0.0 0.0 0.00 1.57 0.00 78 1010.0
20260505182917 63 211 2.0 4.0 0.00 1.57 0.00 78 1010.4
20260505175928 64 225 3.0 4.0 0.00 1.57 0.00 77 1010.4
20260505172918 65 237 3.0 5.0 0.00 1.61 0.00 75 1010.4
20260505165920 66 217 5.0 8.0 0.00 1.61 0.00 74 1010.5
20260505162928 68 234 4.0 8.0 0.00 1.61 0.00 70 1010.6
20260505152935 68 273 4.0 7.0 0.00 1.65 0.00 72 1010.8
20260505122927 67 256 6.0 11.0 0.00 1.65 0.00 75 1011.5
20260505115916 67 207 7.0 12.0 0.00 1.65 0.00 76 1011.6
20260505112934 66 209 4.0 8.0 0.00 1.65 0.00 78 1011.6
20260505095929 64 230 6.0 9.0 0.00 1.65 0.00 84 1011.8
20260505092945 63 236 7.0 9.0 0.00 1.65 0.00 86 1011.9
20260505085915 63 259 6.0 12.0 0.00 1.65 0.00 90 1011.6
20260505082925 62 271 4.0 9.0 0.00 1.65 0.00 92 1011.3
20260505075939 60 270 6.0 9.0 0.00 1.65 0.00 92 1011.3
20260505072929 61 80 3.0 9.0 0.00 1.69 0.00 92 1010.7
20260505065920 61 136 1.0 5.0 0.00 1.69 0.00 93 1010.9
20260505062936 59 86 4.0 7.0 0.00 1.85 0.00 93 1010.7
20260505055926 58 78 2.0 7.0 0.00 1.85 0.00 92 1010.5
20260505052921 58 61 2.0 9.0 0.00 2.01 0.00 92 1010.5
20260505035919 58 76 4.0 9.0 0.00 2.17 0.00 92 1009.7
20260505032957 57 51 3.0 7.0 0.00 2.17 0.00 92 1009.7
20260505025930 57 81 3.0 14.0 0.00 2.17 0.00 92 1010.0
20260505022920 57 127 3.0 7.0 0.51 2.17 0.43 92 1010.3
20260505015931 57 82 3.0 9.0 0.51 2.17 0.43 92 1010.1
20260505012920 57 59 3.0 10.0 0.00 1.65 0.33 92 1010.1
20260505005921 57 111 3.0 9.0 0.00 1.65 0.33 91 1010.4
20260505002915 57 69 6.0 15.0 0.08 1.65 0.33 91 1010.9
20260504235926 57 109 4.0 12.0 0.28 1.65 0.33 91 1011.1
20260504232917 58 75 10.0 21.0 0.35 1.57 0.31 90 1011.2
20260504225914 58 66 8.0 22.0 0.75 1.38 0.28 89 1010.9
20260504222924 58 59 8.0 16.0 0.63 1.22 0.24 87 1011.2
20260504215942 60 121 7.0 15.0 0.04 0.63 0.13 84 1011.9
20260504212935 60 74 8.0 22.0 0.00 0.59 0.12 83 1012.2